Home > Weather > Concepción > Past weeks

Flag for Chile Past Weather in Concepción, Chile — Yesterday and Last 2 Weeks

Now
59 °F

Sunny.


Feels Like: 59 °F
Forecast: 54 / 62 °F
Wind: 2 mph from South

Location: Concepcion Airport

Current Time: May 26, 2016 at 12:36:41 PM

Latest Report: May 26, 2016 at 12:00 PM


Visibility: 10 mi

Pressure: 30.12 "Hg

Humidity: 88%

Dew Point: 55 °F

Location of ConcepciónLocation

Past Weather in Concepción — Graph

°F

Concepción Temperature Yesterday

Maximum temperature yesterday: 63 °F (at 2:00 PM)
Minimum temperature yesterday: 57 °F (at 11:00 PM)
Average temperature yesterday: 59 °F

High & Low Weather Summary for the Past Weeks

 TemperatureHumidityPressure
High68 °F (May 15, 1:00 PM)100% (May 11, 4:00 PM)30.18 "Hg (May 11, 4:00 PM)
Low46 °F (May 22, 2:00 AM)60% (May 22, 2:00 PM)29.86 "Hg (May 13, 4:00 PM)
Average56 °F90%30.03 "Hg
* Reported May 11 12:00 PM — May 26 11:00 AM, Concepción, Weather by CustomWeather, © 2016

Note: Actual official high and low records may vary slightly from our data, if they occured in-between our weather recording intervals... More about our weather records

Advertising

Concepción Weather History for the Previous 24 Hours

Scroll right to see more
 ConditionsComfort  
Time TempWeatherWind HumidityBarometerVisibility
11:00 AM
Thu, May 26
57 °FSunny.5 mph88%30.15 "Hg10 mi
10:00 AM57 °FPassing clouds.5 mph88%30.15 "HgN/A
9:00 AM55 °FPartly sunny.5 mph94%30.15 "HgN/A
8:00 AM55 °FBroken clouds.3 mph94%30.15 "Hg5 mi
7:00 AM55 °FMore clouds than sun.2 mph94%30.12 "HgN/A
6:00 AM57 °FMostly cloudy.No wind94%30.12 "HgN/A
5:00 AM57 °FMostly cloudy.2 mph94%30.12 "HgN/A
4:00 AM57 °FMostly cloudy.No wind94%30.15 "HgN/A
3:00 AM57 °FOvercast.No wind94%30.15 "HgN/A
2:00 AM57 °FScattered showers. Mostly cloudy.5 mph94%30.15 "Hg4 mi
1:00 AM57 °FMostly cloudy.8 mph100%30.15 "HgN/A
12:00 AM57 °FSprinkles. Mostly cloudy.7 mph100%30.15 "Hg5 mi
11:00 PM
Wed, May 25
57 °FSprinkles. Mostly cloudy.9 mph100%30.15 "Hg5 mi
10:00 PM59 °FLow clouds.9 mph94%30.15 "HgN/A
9:00 PM59 °FOvercast.9 mph94%30.15 "HgN/A
8:00 PM59 °FLow clouds.10 mph94%30.12 "HgN/A
7:00 PM59 °FOvercast.10 mph94%30.12 "HgN/A
6:00 PM59 °FLow clouds.13 mph94%30.09 "Hg4 mi
5:00 PM59 °FLow clouds.15 mph94%30.09 "Hg4 mi
4:00 PM59 °FLow clouds.13 mph100%30.09 "Hg4 mi
3:00 PM61 °FLow clouds.13 mph94%30.07 "HgN/A
2:00 PM63 °FPartly sunny.12 mph94%30.07 "HgN/A
1:00 PM61 °FBroken clouds.13 mph94%30.07 "HgN/A
12:00 PM61 °FBroken clouds.12 mph100%30.07 "HgN/A
Weather by CustomWeather, © 2016

See weather overviewHow to use our weather pages